When you browse on this site, cookies collect data to enhance your experience and personalize the content and advertising you see.
Visit our Privacy Policy to learn more. By continuing to use the site, you agree to this use of cookies and data.
  • En España
  • Lista de países
  • Para 7 días
  • Temperatura del agua
  • Mapa Satelital
  • El tiempo en el mapa
  • Informadores
  • user-avatar
    Iniciar sesión

    Tiempo cada hora Krotoshyn

    Hoy, 24 Mayo, Viernes

    Tiempo Temperatura Precipitaciones Viento Presión Humedad
    00:00 +11°C° 0.6 mm 3 mps 729 mmHg 97%
    01:00 +12°C° 0.6 mm 2 mps 729 mmHg 98%
    02:00 +12°C° 0 mm 2 mps 729 mmHg 98%
    03:00 +12°C° 0 mm 2 mps 729 mmHg 98%
    04:00 +12°C° 0 mm 2 mps 729 mmHg 98%
    05:00 +12°C° 0 mm 3 mps 729 mmHg 97%
    06:00 +12°C° 0 mm 3 mps 729 mmHg 96%
    07:00 +13°C° 0 mm 3 mps 729 mmHg 94%
    08:00 +14°C° 0 mm 3 mps 729 mmHg 92%
    09:00 +16°C° 0.1 mm 3 mps 729 mmHg 90%
    10:00 +16°C° 0.1 mm 3 mps 729 mmHg 88%
    11:00 +17°C° 0.1 mm 3 mps 729 mmHg 86%
    12:00 +18°C° 1.2 mm 3 mps 729 mmHg 84%
    13:00 +19°C° 1.2 mm 3 mps 729 mmHg 82%
    14:00 +20°C° 1.2 mm 4 mps 729 mmHg 80%
    15:00 +19°C° 1.1 mm 4 mps 729 mmHg 82%
    16:00 +19°C° 1.1 mm 4 mps 729 mmHg 84%
    17:00 +19°C° 1.1 mm 4 mps 729 mmHg 86%
    18:00 +18°C° 0.3 mm 4 mps 728 mmHg 89%
    19:00 +17°C° 0.3 mm 3 mps 728 mmHg 92%
    20:00 +16°C° 0.3 mm 3 mps 728 mmHg 95%
    21:00 +14°C° 1.8 mm 3 mps 728 mmHg 96%
    22:00 +14°C° 1.8 mm 3 mps 728 mmHg 96%
    23:00 +13°C° 1.8 mm 4 mps 728 mmHg 97%

    Mañana, 25 Mayo, Sábado

    Tiempo Temperatura Precipitaciones Viento Presión Humedad
    00:00 +13°C° 0.2 mm 3 mps 728 mmHg 97%
    01:00 +12°C° 0.2 mm 3 mps 728 mmHg 97%
    02:00 +12°C° 0.2 mm 3 mps 728 mmHg 97%
    03:00 +12°C° 0 mm 3 mps 728 mmHg 97%
    04:00 +11°C° 0 mm 3 mps 728 mmHg 97%
    05:00 +11°C° 0 mm 3 mps 728 mmHg 98%
    06:00 +12°C° 0 mm 3 mps 728 mmHg 96%
    07:00 +13°C° 0 mm 3 mps 728 mmHg 94%
    08:00 +14°C° 0 mm 3 mps 729 mmHg 93%
    09:00 +15°C° 0.3 mm 4 mps 729 mmHg 89%
    10:00 +17°C° 0.3 mm 4 mps 729 mmHg 86%
    11:00 +18°C° 0.3 mm 4 mps 729 mmHg 82%
    12:00 +19°C° 0.8 mm 4 mps 729 mmHg 81%
    13:00 +19°C° 0.8 mm 4 mps 729 mmHg 80%
    14:00 +20°C° 0.8 mm 4 mps 729 mmHg 78%
    15:00 +20°C° 0.7 mm 4 mps 729 mmHg 79%
    16:00 +19°C° 0.7 mm 4 mps 729 mmHg 80%
    17:00 +19°C° 0.7 mm 4 mps 729 mmHg 80%
    18:00 +18°C° 0.3 mm 3 mps 729 mmHg 83%
    19:00 +17°C° 0.3 mm 2 mps 729 mmHg 85%
    20:00 +16°C° 0.3 mm 1 mps 729 mmHg 88%
    21:00 +15°C° 0 mm 2 mps 729 mmHg 89%
    22:00 +14°C° 0 mm 2 mps 729 mmHg 90%
    23:00 +13°C° 0 mm 2 mps 730 mmHg 91%

    Pasado mañana, 26 Mayo, Domingo

    Tiempo Temperatura Precipitaciones Viento Presión Humedad
    00:00 +13°C° 0 mm 2 mps 730 mmHg 92%
    01:00 +12°C° 0 mm 2 mps 730 mmHg 93%
    02:00 +12°C° 0 mm 2 mps 730 mmHg 94%
    03:00 +12°C° 0 mm 2 mps 730 mmHg 94%
    04:00 +10°C° 0 mm 2 mps 730 mmHg 95%
    05:00 +10°C° 0 mm 2 mps 730 mmHg 96%
    06:00 +13°C° 0 mm 2 mps 731 mmHg 92%
    07:00 +14°C° 0 mm 2 mps 731 mmHg 89%
    08:00 +16°C° 0 mm 2 mps 731 mmHg 85%
    09:00 +17°C° 0 mm 2 mps 731 mmHg 80%
    10:00 +18°C° 0 mm 2 mps 731 mmHg 75%
    11:00 +19°C° 0 mm 2 mps 731 mmHg 70%
    12:00 +20°C° 0.2 mm 2 mps 731 mmHg 69%
    13:00 +21°C° 0.2 mm 2 mps 731 mmHg 69%
    14:00 +21°C° 0.2 mm 2 mps 731 mmHg 68%
    15:00 +21°C° 0.8 mm 3 mps 731 mmHg 71%
    16:00 +21°C° 0.8 mm 3 mps 730 mmHg 74%
    17:00 +21°C° 0.8 mm 3 mps 730 mmHg 77%
    18:00 +19°C° 0.6 mm 2 mps 730 mmHg 80%
    19:00 +18°C° 0.6 mm 2 mps 730 mmHg 84%
    20:00 +17°C° 0.6 mm 2 mps 730 mmHg 88%
    21:00 +16°C° 0.1 mm 2 mps 730 mmHg 89%
    22:00 +14°C° 0.1 mm 3 mps 730 mmHg 91%
    23:00 +14°C° 0.1 mm 3 mps 731 mmHg 93%

    27 Mayo, Lunes

    Tiempo Temperatura Precipitaciones Viento Presión Humedad
    00:00 +14°C° 0.3 mm 2 mps 731 mmHg 93%
    01:00 +14°C° 0.3 mm 2 mps 731 mmHg 94%
    02:00 +14°C° 0.3 mm 2 mps 731 mmHg 95%
    03:00 +14°C° 0 mm 1 mps 731 mmHg 94%
    04:00 +14°C° 0 mm 1 mps 731 mmHg 94%
    05:00 +13°C° 0 mm 1 mps 730 mmHg 94%
    06:00 +15°C° 0 mm 1 mps 731 mmHg 91%
    07:00 +17°C° 0 mm 2 mps 731 mmHg 88%
    08:00 +18°C° 0 mm 2 mps 731 mmHg 86%
    09:00 +20°C° 0.1 mm 3 mps 731 mmHg 80%
    10:00 +21°C° 0.1 mm 3 mps 731 mmHg 75%
    11:00 +24°C° 0.1 mm 3 mps 731 mmHg 70%
    12:00 +24°C° 0.2 mm 3 mps 731 mmHg 68%
    13:00 +25°C° 0.2 mm 3 mps 731 mmHg 65%
    14:00 +26°C° 0.2 mm 3 mps 731 mmHg 62%
    15:00 +25°C° 0.2 mm 2 mps 730 mmHg 66%
    16:00 +25°C° 0.2 mm 2 mps 730 mmHg 70%
    17:00 +25°C° 0.2 mm 2 mps 730 mmHg 73%
    18:00 +23°C° 0.2 mm 2 mps 730 mmHg 77%
    19:00 +21°C° 0.2 mm 2 mps 730 mmHg 81%
    20:00 +19°C° 0.2 mm 3 mps 729 mmHg 85%
    21:00 +19°C° 0 mm 2 mps 729 mmHg 86%
    22:00 +18°C° 0 mm 2 mps 729 mmHg 86%
    23:00 +19°C° 0 mm 1 mps 729 mmHg 87%

    28 Mayo, Martes

    Tiempo Temperatura Precipitaciones Viento Presión Humedad
    00:00 +18°C° 0 mm 1 mps 729 mmHg 88%
    01:00 +18°C° 0 mm 1 mps 729 mmHg 90%
    02:00 +18°C° 0 mm 1 mps 728 mmHg 91%
    03:00 +16°C° 0.2 mm 1 mps 728 mmHg 91%
    04:00 +16°C° 0.2 mm 1 mps 728 mmHg 91%
    05:00 +16°C° 0.2 mm 1 mps 728 mmHg 91%
    06:00 +18°C° 0.1 mm 2 mps 728 mmHg 88%
    07:00 +19°C° 0.1 mm 2 mps 727 mmHg 85%
    08:00 +20°C° 0.1 mm 2 mps 727 mmHg 82%
    09:00 +21°C° 0.3 mm 3 mps 727 mmHg 79%
    10:00 +23°C° 0.3 mm 4 mps 727 mmHg 76%
    11:00 +25°C° 0.3 mm 5 mps 726 mmHg 73%
    12:00 +25°C° 1 mm 5 mps 726 mmHg 73%
    13:00 +26°C° 1 mm 5 mps 726 mmHg 73%
    14:00 +26°C° 1 mm 6 mps 725 mmHg 72%
    15:00 +25°C° 1.9 mm 5 mps 725 mmHg 75%
    16:00 +25°C° 1.9 mm 4 mps 725 mmHg 79%
    17:00 +24°C° 1.9 mm 3 mps 725 mmHg 82%
    18:00 +22°C° 1.4 mm 3 mps 725 mmHg 82%
    19:00 +21°C° 1.4 mm 3 mps 724 mmHg 82%
    20:00 +20°C° 1.4 mm 2 mps 724 mmHg 83%
    21:00 +19°C° 0 mm 2 mps 724 mmHg 84%
    22:00 +18°C° 0 mm 3 mps 724 mmHg 85%
    23:00 +17°C° 0 mm 3 mps 724 mmHg 87%

    29 Mayo, Miércoles

    Tiempo Temperatura Precipitaciones Viento Presión Humedad
    00:00 +16°C° 0 mm 3 mps 725 mmHg 87%
    01:00 +16°C° 0 mm 3 mps 725 mmHg 88%
    02:00 +16°C° 0 mm 3 mps 725 mmHg 88%
    03:00 +14°C° 0 mm 3 mps 725 mmHg 88%
    04:00 +14°C° 0 mm 3 mps 725 mmHg 89%
    05:00 +14°C° 0 mm 3 mps 725 mmHg 89%
    06:00 +15°C° 0 mm 4 mps 725 mmHg 85%
    07:00 +18°C° 0 mm 4 mps 726 mmHg 81%
    08:00 +20°C° 0 mm 5 mps 726 mmHg 76%
    09:00 +21°C° 0 mm 5 mps 727 mmHg 73%
    10:00 +22°C° 0 mm 5 mps 727 mmHg 69%
    11:00 +23°C° 0 mm 5 mps 727 mmHg 65%
    12:00 +23°C° 0.1 mm 5 mps 727 mmHg 64%
    13:00 +25°C° 0.1 mm 5 mps 727 mmHg 63%
    14:00 +25°C° 0.1 mm 5 mps 728 mmHg 62%
    15:00 +25°C° 0.3 mm 5 mps 728 mmHg 66%
    16:00 +23°C° 0.3 mm 5 mps 728 mmHg 70%
    17:00 +23°C° 0.3 mm 4 mps 728 mmHg 73%
    18:00 +21°C° 0.2 mm 4 mps 728 mmHg 78%
    19:00 +20°C° 0.2 mm 3 mps 728 mmHg 82%
    20:00 +18°C° 0.2 mm 2 mps 729 mmHg 86%
    21:00 +18°C° 0 mm 2 mps 729 mmHg 88%
    22:00 +17°C° 0 mm 2 mps 729 mmHg 90%
    23:00 +16°C° 0 mm 2 mps 730 mmHg 92%
    Mostrar más